www.pogodaiklimat.ru
Время
(UTC), дата
08 30.03
07 30.03
09 30.03
10 30.03
11 30.03
12 30.03
14 30.03
13 30.03
15 30.03
16 30.03
17 30.03
18 30.03
20 30.03
19 30.03
21 30.03
00 31.03
03 31.03
04 31.03
05 31.03
06 31.03
08 31.03
07 31.03
09 31.03
10 31.03
11 31.03
12 31.03
14 31.03
13 31.03
15 31.03
16 31.03
17 31.03
18 31.03
20 31.03
19 31.03
21 31.03
00 1.04
03 1.04
04 1.04
05 1.04
06 1.04
08 1.04
07 1.04
09 1.04
10 1.04
11 1.04
12 1.04
14 1.04
13 1.04
15 1.04
16 1.04
17 1.04
18 1.04
20 1.04
19 1.04
21 1.04
00 2.04
03 2.04
04 2.04
05 2.04
06 2.04
08 2.04
07 2.04
09 2.04
10 2.04
11 2.04
12 2.04
14 2.04
13 2.04
15 2.04
16 2.04
17 2.04
18 2.04
20 2.04
19 2.04
21 2.04
00 3.04
03 3.04
04 3.04
05 3.04
06 3.04
08 3.04
07 3.04
09 3.04
10 3.04
11 3.04
12 3.04
14 3.04
13 3.04
15 3.04
16 3.04
17 3.04
18 3.04
20 3.04
19 3.04
21 3.04
00 4.04
03 4.04
04 4.04
05 4.04
06 4.04
08 4.04
07 4.04
09 4.04
10 4.04
11 4.04
12 4.04
14 4.04
13 4.04
15 4.04
16 4.04
17 4.04
18 4.04
20 4.04
19 4.04
21 4.04
00 5.04
03 5.04
04 5.04
05 5.04
06 5.04
08 5.04
07 5.04
09 5.04
10 5.04
11 5.04
12 5.04
14 5.04
13 5.04
15 5.04
16 5.04
17 5.04
18 5.04
20 5.04
19 5.04
21 5.04
00 6.04
03 6.04
04 6.04
05 6.04
06 6.04
07 6.04
Ветер
(напр.,м/с)
Видим. Явления Облачность Т
(С)
Тd
(С)
f
(%)
Тe
(С)
Тes
(С)
Комфортность P
(гПа)
Po
(гПа)
Тmin
(С)
Tmax
(С)
R
(мм)
R24
(мм)
S
(см)
СЗ 2 10 км ясно +16.8 +2.2 37 +17 +26 тепло 1013.0 1009.0
штиль 0 10 км ясно +11.9 +4.4 60 +12 +18 тепло 1013.0 1008.9
СЗ 1 10 км 1/1 1200 м
[Cu hum]
+18.9 +0.5 29 +20 +32 тепло 1012.5 1008.6
Ю 3 10 км 1/1 1200 м
[Cu med, cong]
+19.3 +2.6 33 +20 +30 тепло 1012.2 1008.3
ЮЗ 2 10 км 3/3 1200 м
[Cu med, cong]
+19.8 +0.9 28 +21 +30 комфорт 1011.8 1007.8
ЮЗ 1 10 км 4/4 1200 м
[Cu Sc]
+20.3 -1.4 23 +21 +30 комфорт 1011.3 1007.3
ЮЗ 1 10 км 5/4 1200 м
[Cu Sc Ac trans]
+21.2 -2.4 20 +20 +25 тепло 1010.1 1006.1
ЮВ 1 10 км 5/4 1200 м
[Cu Sc Ac trans]
+21.1 -1.6 22 +21 +27 комфорт 1010.6 1006.6
З 2 10 км 8/4 1200 м
[Cu Sc Ac trans]
+20.4 -3.4 20 +21 +22 комфорт 1009.9 1005.9
СВ 4 10 км 6/4 1200 м
[Cu Sc Ac trans]
+18.9 +0.9 30 +19 +19 тепло 1010.1 1006.1
СВ 3 10 км 6/3 1200 м
[Sc diur, vesp Ac trans Ci sp]
+17.8 +0.1 30 +18 +18 тепло 1010.4 1006.4
СВ 4 10 км 4/3 1200 м
[Sc Ac trans]
+17.1 -0.9 29 +17 +17 тепло 1011.0 1007.0 +21.5
СВ 4 10 км 8/3 1200 м
[Sc Ac As]
+15.9 -0.8 32 +15 +15 тепло 1012.1 1008.0
СВ 4 10 км 5/3 1200 м
[Sc Ac As]
+16.2 -1.2 30 +16 +16 тепло 1011.5 1007.5
С 4 10 км 4/1 1200 м
[Sc Ac trans]
+14.5 -0.8 35 +14 +14 тепло 1012.7 1008.6
С 6 10 км ясно +12.5 -1.4 38 +10 +10 по сезону 1013.6 1009.5
С 6 10 км ясно +11.7 -1.5 40 +9 +9 по сезону 1013.8 1009.7
С 6 10 км 4/0
[Ac trans]
+11.3 -1.5 41 +9 +9 по сезону 1014.3 1010.2
С 7 10 км 6/0
[Ac trans]
+11.3 -1.4 41 +9 +9 тепло 1014.8 1010.7
С 6 10 км 6/0 2000 м
[Ac trans]
+11.5 -1.4 41 +9 +10 по сезону 1015.0 1010.9 +11.2
С 6 10 км 6/0
[Ac trans]
+13.8 -1.5 35 +12 +14 тепло 1015.1 1011.1
С 7 10 км 6/0
[Ac trans]
+12.7 -1.5 37 +10 +11 тепло 1015.1 1011.0
штиль 0 10 км 6/0 2000 м
[Ac trans]
+14.2 +1.5 42 +14 +24 тепло 1015.0 1011.0
В 1 10 км 6/0
[Ac trans]
+15.3 0.0 35 +16 +27 тепло 1014.7 1010.7
Ю 3 10 км 6/0
[Ac trans]
+14.2 +2.9 46 +13 +21 тепло 1014.5 1010.4
ЮВ 2 10 км 9/3 1200 м
[Sc Ac As]
+15.0 +2.2 42 +15 +19 по сезону 1014.0 1010.0
С 6 10 км слаб. дождь 10/5 1200 м
[Sc As op]
+12.8 +3.8 54 +11 +11 прохладно 1014.0 1010.0
СЗ 2 10 км слаб. дождь 10/5 1200 м
[Sc As op]
+14.4 +4.2 50 +14 +15 по сезону 1013.9 1009.9
С 7 10 км слаб. дождь 10/5 1200 м
[Sc As op]
+11.2 +2.8 56 +8 +8 холодно 1014.1 1010.0
С 7 10 км в посл. час дождь 10/5 1200 м
[Sc As op]
+10.7 +0.5 49 +8 +8 прохладно 1014.2 1010.1
С 7 10 км 9/5 1200 м
[Sc Ac As]
+9.7 -1.3 46 +6 +6 холодно 1014.4 1010.3
С 8 10 км {дождь} 9/4 1200 м
[Sc Ac As]
+9.1 -2.5 44 +5 +5 холодно 1015.3 1011.2 +16.0 0.0
С 8 10 км 10/6 1200 м
[Sc As op]
+7.2 -2.0 52 +3 +3 холодно 1016.3 1012.2
СВ 7 10 км 9/5 1200 м
[Sc Ac As]
+8.8 -2.7 44 +5 +5 прохладно 1015.7 1011.6
С 10 10 км слаб. дождь 10/8 1000 м
[Sc As op]
+4.5 +0.4 75 -2 -2 очень
холодно
1016.7 1012.5
С 7 7000 м дождь со снегом 10/8 400 м
[Sc As op]
+2.3 +0.5 88 -4 -4 очень
холодно
1017.4 1013.1 4
СВ 5 10 км слаб. дождь со снегом 10/8 480 м
[Sc As op]
+3.3 -1.0 73 -2 -2 очень
холодно
1015.7 1011.5
СВ 7 7000 м слаб. дождь со снегом 10/8 400 м
[Sc As op]
+2.4 -0.6 81 -4 -4 очень
холодно
1015.4 1011.2
СВ 4 10 км слаб. дождь со снегом 10/8 500 м
[Sc As op]
+2.4 -0.6 81 -2 -2 холодно 1014.9 1010.7
СВ 3 10 км в посл. час дождь со снегом 10/8 1000 м
[Sc As op]
+3.5 -1.8 68 0 0 очень
холодно
1014.6 1010.4 +1.8 6
СВ 4 10 км 10/8 500 м
[Sc As op]
+5.1 -2.7 57 +2 +2 холодно 1014.2 1010.0
СВ 3 10 км 10/8 1200 м
[Sc As op]
+4.4 -2.6 60 +1 +1 прохладно 1014.3 1010.1
СВ 3 10 км 10/8 500 м
[Sc As op]
+5.7 -3.3 52 +3 +3 очень
холодно
1014.0 1009.8
СВ 3 10 км 9/5 500 м
[Sc As op]
+7.0 -5.7 40 +5 +7 холодно 1013.4 1009.3
ЮВ 2 10 км 9/5 500 м
[Sc Ac As]
+6.6 -0.9 59 +5 +8 холодно 1012.9 1008.8
ЮВ 2 10 км 9/5 500 м
[Sc Ac As]
+7.9 -2.0 50 +6 +9 очень
холодно
1012.1 1008.0
Ю 3 10 км 9/5 1000 м
[Cu Sc Ac As]
+6.4 +0.4 65 +4 +5 очень
холодно
1012.5 1008.3
ЮВ 3 10 км 9/6 1200 м
[Cu Sc Ac As]
+6.6 +0.7 66 +4 +5 очень
холодно
1012.4 1008.3
штиль 0 10 км 9/5 1000 м
[Cu Sc Ac As]
+7.1 0.0 61 +7 +8 холодно 1012.5 1008.4
СВ 4 10 км 9/5 1200 м
[Cu Sc Ac As]
+7.5 -4.6 42 +5 +5 очень
холодно
1013.0 1008.8
С 7 10 км 8/5 1200 м
[Sc Ac trans]
+6.8 -6.2 39 +3 +3 очень
холодно
1013.6 1009.5
СВ 6 10 км 8/5 1200 м
[Sc Ac trans]
+6.5 -6.8 38 +3 +3 очень
холодно
1014.3 1010.1 +7.9
СВ 4 10 км 8/5 1200 м
[Sc Ac trans]
+5.3 -6.8 41 +2 +2 очень
холодно
1015.0 1010.8
СВ 5 10 км 8/5 1200 м
[Sc Ac trans]
+5.9 -6.8 40 +2 +2 очень
холодно
1014.9 1010.7
СВ 4 10 км 8/5 1200 м
[Sc Ac trans]
+5.3 -6.8 41 +2 +2 очень
холодно
1015.5 1011.3
С 4 10 км 5/5 1200 м
[Sc]
+4.5 -6.2 46 +1 +1 холодно 1015.7 1011.5
С 3 10 км 3/3 1200 м
[Sc]
+2.7 -5.4 55 -1 -1 очень
холодно
1015.5 1011.3
С 2 10 км 3/3 1200 м
[Sc]
+1.5 -5.2 61 -1 -1 очень
холодно
1015.6 1011.4
СЗ 2 10 км ясно +1.0 -4.3 68 -2 -2 холодно 1015.9 1011.6
СЗ 3 10 км ясно +5.2 -4.5 50 +2 +4 холодно 1015.7 1011.5 +0.9
ЮЗ 1 10 км ясно +8.1 -5.7 37 +8 +18 опасность
простуды
1015.4 1011.2
С 2 10 км ясно +7.5 -5.4 39 +6 +11 по сезону 1015.4 1011.2
Ю 1 10 км ясно +9.5 -4.5 37 +10 +24 опасность
простуды
1015.2 1011.0
Ю 1 10 км ясно +10.4 -3.1 39 +11 +27 опасность
простуды
1015.1 1011.0
ЮВ 2 10 км ясно +11.1 -2.5 39 +10 +25 опасность
простуды
1014.9 1010.8
Ю 3 10 км ясно +12.4 -2.4 36 +11 +22 опасность
простуды
1014.5 1010.4
Ю 2 10 км ясно +13.1 -1.0 38 +13 +20 прохладно 1013.5 1009.5
Ю 3 10 км ясно +12.4 -1.1 39 +11 +20 холодно 1014.1 1010.0
Ю 2 10 км ясно +13.3 -1.1 37 +13 +17 по сезону 1013.5 1009.4
Ю 2 10 км ясно +12.6 -0.8 40 +12 +13 по сезону 1013.4 1009.3
Ю 1 10 км ясно +11.9 -0.7 42 +12 +12 по сезону 1013.3 1009.2
штиль 0 10 км ясно +9.0 +0.4 55 +9 +9 прохладно 1013.5 1009.4 +13.4
С 1 10 км ясно +6.5 +1.6 71 +6 +6 холодно 1014.0 1009.8
СВ 1 10 км ясно +7.9 +1.8 65 +7 +7 прохладно 1013.9 1009.8
штиль 0 10 км ясно +5.9 +0.8 70 +5 +5 холодно 1014.2 1010.1
С 1 10 км 3/3 1500 м
[Sc]
+4.6 +0.8 76 +3 +3 холодно 1014.4 1010.2
С 2 10 км 3/3 1500 м
[Sc]
+4.5 +0.3 74 +2 +2 холодно 1014.3 1010.1
С 2 10 км ясно +4.0 +0.2 76 +1 +1 холодно 1014.3 1010.1
С 1 10 км 1/1 1200 м
[Sc]
+4.9 -0.1 70 +4 +4 по сезону 1014.4 1010.2
С 1 20 км 4/1 1500 м
[Sc Ac trans Ci sp]
+6.7 +1.5 69 +6 +8 прохладно 1014.3 1010.1 +3.7
штиль 0 20 км 8/4 1500 м
[Sc Ac trans Cs]
+11.0 +0.3 48 +11 +16 тепло 1014.5 1010.4
СВ 1 20 км 5/1 1500 м
[Sc Ac trans Ci sp]
+9.4 -0.4 50 +9 +14 тепло 1014.5 1010.3
штиль 0 20 км 9/3 1500 м
[Sc Ac trans Cs]
+12.2 +0.8 46 +12 +19 по сезону 1014.4 1010.3
Ю 2 20 км 9/4 1200 м
[Cu Sc Ac As]
+11.9 +1.2 48 +11 +15 по сезону 1014.3 1010.2
ЮВ 1 20 км 9/4 1200 м
[Cu Sc Ac As]
+13.3 +1.8 46 +14 +18 тепло 1014.0 1010.0
Ю 1 20 км 8/3 1200 м
[Cu Sc Ac trans Cs]
+15.0 +2.5 43 +16 +23 по сезону 1013.5 1009.4
ЮЗ 2 20 км 6/3 1200 м
[Cu Sc Ac trans Ci sp]
+16.4 +2.1 38 +17 +20 по сезону 1012.6 1008.6
Ю 1 20 км 6/3 1200 м
[Cu Sc Ac trans Ci]
+16.0 +2.7 41 +17 +24 по сезону 1013.0 1009.0
ЮЗ 1 20 км 8/3 1200 м
[Cu Sc Ac trans]
+15.2 +2.3 42 +16 +18 по сезону 1012.3 1008.3
штиль 0 20 км 8/1 1500 м
[Sc Ac trans]
+15.3 +1.3 39 +15 +16 по сезону 1012.0 1008.0
штиль 0 20 км 5/1 1500 м
[Sc Ac trans]
+15.1 +2.4 42 +15 +15 по сезону 1011.9 1007.9
штиль 0 20 км 5/1 1500 м
[Sc Ac trans]
+13.1 +4.0 54 +13 +13 по сезону 1012.3 1008.2 +16.4
З 1 20 км 8/3 1500 м
[Sc Ac trans]
+11.2 +6.2 71 +11 +11 по сезону 1012.9 1008.9
В 1 20 км 8/3 1500 м
[Sc Ac trans]
+12.6 +5.3 61 +13 +13 тепло 1012.9 1008.8
штиль 0 20 км 8/3 1500 м
[Sc Ac trans]
+10.8 +5.1 68 +10 +10 по сезону 1012.9 1008.9
штиль 0 20 км 8/3 1500 м
[Sc Ac trans]
+9.4 +6.8 84 +9 +9 по сезону 1012.2 1008.1
штиль 0 20 км 8/3 1500 м
[Sc Ac trans]
+9.1 +6.0 81 +8 +8 по сезону 1012.2 1008.1
С 2 20 км 8/0
[Ac trans]
+12.3 +2.8 52 +12 +12 тепло 1011.8 1007.7
СВ 6 10 км 6/0
[Ac trans]
+13.3 -0.2 39 +11 +11 тепло 1012.2 1008.1
СВ 7 10 км 6/0 2000 м
[Ac trans]
+13.8 -1.2 35 +12 +12 тепло 1012.7 1008.7 +8.0
С 9 10 км 4/0
[Ac trans]
+14.4 -1.7 33 +12 +13 тепло 1013.7 1009.7
С 9 10 км 6/0
[Ac trans]
+13.9 -1.9 33 +12 +12 тепло 1013.2 1009.2
СВ 11 10 км 4/0 2000 м
[Ac trans]
+15.0 -1.4 32 +13 +13 по сезону 1013.6 1009.6
С 12 10 км 4/0
[Ac trans]
+16.2 -1.2 30 +14 +14 по сезону 1013.2 1009.2
С 9 10 км 4/0
[Ac trans]
+15.4 -0.9 33 +14 +15 тепло 1013.2 1009.1
С 11 10 км 4/0 2000 м
[Ac trans]
+17.4 -0.8 29 +16 +16 по сезону 1012.8 1008.8
С 10 10 км 4/0
[Ac trans]
+17.5 -0.1 30 +16 +16 по сезону 1011.7 1007.7
С 10 10 км 4/0
[Ac trans]
+16.8 -0.3 31 +15 +16 прохладно 1011.9 1007.9
С 11 10 км 4/0 2000 м
[Ac trans]
+16.9 +0.2 32 +15 +15 по сезону 1011.8 1007.8
С 11 10 км 4/0
[Ac trans]
+15.9 +0.3 35 +14 +14 по сезону 1012.3 1008.3
С 9 20 км 5/3 1500 м
[Sc Ac trans]
+15.0 +0.2 36 +13 +13 по сезону 1012.5 1008.5
С 9 20 км 8/3 1500 м
[Sc Ac trans]
+14.8 +0.1 37 +13 +13 по сезону 1013.2 1009.1 +17.9
СВ 6 20 км 6/3 1500 м
[Sc Ac trans]
+15.2 -0.7 34 +14 +14 тепло 1014.0 1010.0
С 6 20 км 6/3 1500 м
[Sc Ac trans]
+14.7 +0.1 37 +13 +13 по сезону 1013.6 1009.6
СВ 7 20 км 8/3 1500 м
[Sc Ac trans Cs]
+15.2 -0.5 34 +14 +14 тепло 1013.8 1009.8
С 9 20 км 9/3 1500 м
[Sc Ac trans Cs]
+15.1 -1.0 33 +13 +13 тепло 1013.6 1009.6
С 10 20 км 9/3 1500 м
[Sc Ac As]
+14.5 -1.1 34 +12 +12 тепло 1013.3 1009.3
С 8 20 км 9/4 1500 м
[Sc Ac As]
+14.5 -1.0 34 +13 +13 тепло 1013.5 1009.5
С 9 20 км 9/5 1200 м
[Cu Sc Ac As]
+14.5 -0.2 36 +12 +12 тепло 1014.0 1010.0
С 10 20 км 9/4 1200 м
[Cu Sc Ac As]
+14.3 +0.2 38 +12 +12 тепло 1014.6 1010.5 +14.3
СВ 8 20 км 9/4 1200 м
[Sc Ac As]
+14.8 +0.2 37 +13 +13 тепло 1016.0 1011.9
С 11 20 км 9/4 1200 м
[Cu Sc Ac As]
+14.5 0.0 37 +12 +12 тепло 1015.1 1011.1
С 8 20 км 9/4 1200 м
[Sc Ac As]
+16.0 +0.5 35 +14 +15 по сезону 1016.7 1012.7
С 9 20 км 9/4 1200 м
[Sc Ac As]
+17.0 +0.4 32 +16 +16 тепло 1016.7 1012.7
С 8 20 км 8/4 1200 м
[Sc Ac As]
+18.5 0.0 29 +18 +19 тепло 1016.2 1012.2
СВ 7
{12}
20 км 8/4 1200 м
[Sc Ac As]
+18.6 -1.0 27 +18 +19 по сезону 1016.7 1012.7
С 10
{16}
20 км 8/3 1200 м
[Sc Ac trans]
+17.2 -1.1 29 +16 +16 по сезону 1017.6 1013.6
СВ 9 20 км 9/3 1200 м
[Sc Ac As]
+16.5 -0.3 32 +15 +15 прохладно 1017.6 1013.5
С 10 20 км 9/3 1500 м
[Sc Ac As]
+17.0 -2.2 27 +16 +16 по сезону 1017.8 1013.8
СВ 7 20 км 9/3 1500 м
[Sc Ac As]
+17.0 -2.6 26 +16 +16 по сезону 1018.6 1014.6
СВ 5 10 км 9/3 1200 м
[Sc Ac As]
+16.5 -3.3 26 +16 +16 по сезону 1019.4 1015.4
СВ 5 10 км 5/0 2000 м
[Ac trans]
+16.1 -3.4 26 +15 +15 тепло 1020.2 1016.1 +18.7
С 4 10 км 5/0
[Ac trans]
+15.2 -2.6 29 +14 +14 по сезону 1021.1 1017.0
СВ 4 10 км 5/0
[Ac trans]
+15.7 -2.8 28 +15 +15 тепло 1020.9 1016.8
СВ 5 10 км 5/0 2000 м
[Ac trans]
+15.1 -2.9 29 +14 +14 тепло 1020.7 1016.6
СВ 8 10 км 5/0 2000 м
[Ac trans]
+15.2 -4.5 25 +13 +13 тепло 1020.4 1016.3
СВ 5 10 км 5/0 2000 м
[Ac trans]
+14.1 -5.4 25 +13 +13 тепло 1020.8 1016.9 0.0
СВ 5 10 км 3/0
[Ac trans]
+13.6 -7.3 23 +12 +12 тепло 1021.6 1017.5
СВ 6 10 км 3/0
[Ac trans]
+13.6 -8.2 21 +12 +12 тепло 1022.3 1018.2
СВ 5 10 км 3/0
[Ac trans]
+14.4 -8.4 20 +13 +14 тепло 1023.5 1019.4 +13.5
В 2 10 км 3/0
[Ac trans]
+15.7 -5.3 23 +16 +21 тепло 1024.4 1020.4
Местоположение метеостанции Подгорица (Черногория): широта 42.37 долгота 19.25 высота над уровнем моря 33 м.
В архиве по умолчанию представлена погода в Подгорице за последнюю неделю. Архивные данные за месяц целиком и за предыдущие месяцы, начиная с января 2011 года, Вы можете получить, выбрав интересующий диапазон дат из раскрывающегося списка и нажав кнопку "Найти!".
*Определитесь, кто Вы:
Внимание! Время в таблицах - всемирное. Для получения местного времени необходимо прибавить поправку, которая равна 1 ч.
Смотрите также архив погоды в соседних городах и на ближайших метеорологических станциях:
Партнеры нашего сайта:      
Пояснения к столбцам:
  • Ветер - указаны скорость ветра в м/с - средняя за 10 мин, порывы в срок и между сроками (в фигурных скобках) и направление, откуда дует ветер: С - северный,
  • СВ - северо-восточный, В - восточный, ЮВ - юго-восточный, Ю - южный, ЮЗ - юго-западный, З - западный, СЗ - северо-западный.
  • Видимость - горизонтальная дальность видимости в метрах или километрах. При видимости от 1 до 10 км при отсутствии осадков обычно наблюдается дымка, при ухудшении видимости до 1 км и менее - туман. В сухую погоду видимость может ухудшаться дымом, пылью или мглою.
  • Явления - указаны атмосферные явления, наблюдавшиеся в срок или в последний час перед сроком; фигурными скобками обозначены явления, наблюдавшиеся между сроками (за 1-3 часа до срока); квадратными скобками обозначены град или гололедные отложения с указанием их диаметра в мм.
  • Облачность - указаны через наклонную черту общая и нижняя облачность в баллах и высота нижней границы облаков в метрах; квадратными скобками обозначены формы облаков: Ci - перистые, Cs - перисто-слоистые, Cc - перисто-кучевые, Ac - высококучевые, As - высокослоистые, Sc - слоисто-кучевые, Ns - слоисто-дождевые, Cu - кучевые, Cb - кучево-дождевые. Подробнее классификацию облаков см. в Атласе облаков (PDF).
  • T - Температура воздуха - температура, измеренная на высоте 2 м над землей.
  • Td - Температура точки росы - температура, при понижении до которой содержащийся в воздухе водяной пар достигнет насыщения.
  • f - Относительная влажность воздуха - влажноcть воздуха, измеренная на высоте 2 м над землей.
  • Te - Эффективная температура - температура, которую ощущает одетый по сезону человек в тени. Характеристика душности погоды. При расчете учитывается влияние влажности воздуха и скорости ветра на теплоощущения человека.
  • Tes - Эффективная температура на солнце - температура, которую ощущает человек, с поправкой на солнечный нагрев. Характеристика знойности погоды. Зависит от высоты солнца над горизонтом, облачности и скорости ветра. Ночью, в пасмурную погоду, а также при ветре 12 м/с и более поправка равна нулю.
  • P - Атмосферное давление - приведенное к уровню моря атмосферное давление.
  • Po - Атмосферное давление - измеренное на уровне метеостанции атмосферное давление.
  • Tmin - Минимальная температура - минимум температуры воздуха на высоте 2 м над землей.
  • Tmax - Максимальная температура - максимум температуры воздуха на высоте 2 м над землей.
  • R - Количество осадков - Количество выпавших осадков за период времени, мм. При наведении курсора мыши на число - период времени, за который выпало указанное количество осадков.
  • R24 - Количество осадков - Количество выпавших осадков за 24 часа, мм.
  • S - Снежный покров - Высота снежного покрова, см. При наведении курсора мыши на число - состояние снежного покрова и степень покрытия местности в баллах.